Time,TemperatureF,DewpointF,PressureIn,WindDirection,WindDirectionDegrees,WindSpeedMPH,WindSpeedGustMPH,Humidity,HourlyPrecipIn,Conditions,Clouds,dailyrainin,SoftwareType,DateUTC
2013-04-24 00:07:00,54.5,48.0,30.10,NNE,18,9.0,17.0,79,0.00,,,0.00,weatherlink.com 1.10,2013-04-24 05:07:00,
2013-04-24 00:22:00,54.4,48.0,30.10,NW,317,7.0,15.0,80,0.00,,,0.00,weatherlink.com 1.10,2013-04-24 05:22:00,
2013-04-24 00:37:00,54.1,48.0,30.11,North,360,7.0,13.0,80,0.00,,,0.00,weatherlink.com 1.10,2013-04-24 05:37:00,
2013-04-24 00:52:00,52.8,48.0,30.11,NNE,26,10.0,11.0,83,0.00,,,0.00,weatherlink.com 1.10,2013-04-24 05:52:00,
2013-04-24 01:07:00,52.0,48.0,30.12,NNW,337,9.0,14.0,86,0.01,,,0.01,weatherlink.com 1.10,2013-04-24 06:07:00,
2013-04-24 01:22:00,51.5,48.0,30.13,NNW,344,16.0,16.0,86,0.01,,,0.01,weatherlink.com 1.10,2013-04-24 06:22:00,
2013-04-24 01:37:00,51.0,46.0,30.14,NNW,328,9.0,19.0,84,0.01,,,0.01,weatherlink.com 1.10,2013-04-24 06:37:00,
2013-04-24 01:52:00,50.6,46.0,30.14,NNE,17,8.0,16.0,84,0.01,,,0.01,weatherlink.com 1.10,2013-04-24 06:52:00,
2013-04-24 02:07:00,49.9,46.0,30.14,North,355,14.0,21.0,85,0.00,,,0.01,weatherlink.com 1.10,2013-04-24 07:07:00,
2013-04-24 02:22:00,49.2,45.0,30.14,NNW,347,5.0,16.0,86,0.00,,,0.01,weatherlink.com 1.10,2013-04-24 07:22:00,
2013-04-24 02:37:00,48.8,45.0,30.15,NW,321,10.0,17.0,87,0.00,,,0.01,weatherlink.com 1.10,2013-04-24 07:37:00,
2013-04-24 02:52:00,48.3,45.0,30.15,North,349,8.0,18.0,87,0.00,,,0.01,weatherlink.com 1.10,2013-04-24 07:52:00,
2013-04-24 03:07:00,48.2,45.0,30.15,NNW,345,9.0,16.0,88,0.00,,,0.01,weatherlink.com 1.10,2013-04-24 08:07:00,
2013-04-24 03:22:00,47.9,44.0,30.16,North,355,11.0,20.0,87,0.00,,,0.01,weatherlink.com 1.10,2013-04-24 08:22:00,
2013-04-24 03:37:00,47.9,45.0,30.16,NNW,333,6.0,19.0,88,0.00,,,0.01,weatherlink.com 1.10,2013-04-24 08:37:00,
2013-04-24 03:52:00,47.5,44.0,30.16,NW,317,6.0,19.0,86,0.00,,,0.01,weatherlink.com 1.10,2013-04-24 08:52:00,
2013-04-24 04:07:00,47.3,44.0,30.17,NW,316,12.0,20.0,87,0.00,,,0.01,weatherlink.com 1.10,2013-04-24 09:07:00,
2013-04-24 04:22:00,47.2,44.0,30.18,NW,318,10.0,22.0,87,0.00,,,0.01,weatherlink.com 1.10,2013-04-24 09:22:00,
2013-04-24 04:37:00,46.9,43.0,30.19,NW,321,15.0,20.0,86,0.00,,,0.01,weatherlink.com 1.10,2013-04-24 09:37:00,
2013-04-24 04:53:00,46.6,43.0,30.20,NNW,348,8.0,19.0,86,0.00,,,0.01,weatherlink.com 1.10,2013-04-24 09:53:00,
2013-04-24 05:08:00,46.4,42.0,30.19,NE,50,7.0,16.0,85,0.00,,,0.01,weatherlink.com 1.10,2013-04-24 10:08:00,
2013-04-24 05:23:00,46.3,42.0,30.20,NNW,338,6.0,18.0,86,0.00,,,0.01,weatherlink.com 1.10,2013-04-24 10:23:00,
2013-04-24 05:38:00,46.3,43.0,30.20,North,350,13.0,18.0,88,0.00,,,0.01,weatherlink.com 1.10,2013-04-24 10:38:00,
2013-04-24 05:53:00,46.1,43.0,30.21,WNW,289,9.0,18.0,87,0.00,,,0.01,weatherlink.com 1.10,2013-04-24 10:53:00,
2013-04-24 06:08:00,46.1,42.0,30.20,NNW,333,9.0,17.0,86,0.00,,,0.01,weatherlink.com 1.10,2013-04-24 11:08:00,
2013-04-24 06:23:00,46.1,42.0,30.21,NNW,336,14.0,16.0,86,0.00,,,0.01,weatherlink.com 1.10,2013-04-24 11:23:00,
2013-04-24 06:38:00,46.0,42.0,30.22,NNW,332,8.0,15.0,86,0.00,,,0.01,weatherlink.com 1.10,2013-04-24 11:38:00,
2013-04-24 06:53:00,45.5,41.0,30.22,North,349,8.0,20.0,84,0.00,,,0.01,weatherlink.com 1.10,2013-04-24 11:53:00,
2013-04-24 07:08:00,45.6,41.0,30.23,NNW,343,17.0,17.0,84,0.00,,,0.01,weatherlink.com 1.10,2013-04-24 12:08:00,
2013-04-24 07:23:00,45.8,41.0,30.23,NNW,344,10.0,21.0,83,0.00,,,0.01,weatherlink.com 1.10,2013-04-24 12:23:00,
2013-04-24 07:38:00,46.0,41.0,30.23,NNW,340,15.0,18.0,84,0.00,,,0.01,weatherlink.com 1.10,2013-04-24 12:38:00,
2013-04-24 07:53:00,46.1,41.0,30.23,North,360,7.0,17.0,83,0.00,,,0.01,weatherlink.com 1.10,2013-04-24 12:53:00,
2013-04-24 08:08:00,46.1,41.0,30.25,North,355,15.0,16.0,82,0.00,,,0.01,weatherlink.com 1.10,2013-04-24 13:08:00,
2013-04-24 08:23:00,46.0,41.0,30.25,NNW,345,11.0,18.0,83,0.00,,,0.01,weatherlink.com 1.10,2013-04-24 13:23:00,
2013-04-24 08:38:00,46.3,41.0,30.26,NW,310,7.0,19.0,83,0.00,,,0.01,weatherlink.com 1.10,2013-04-24 13:38:00,
2013-04-24 08:53:00,46.8,42.0,30.25,North,350,6.0,17.0,82,0.00,,,0.01,weatherlink.com 1.10,2013-04-24 13:53:00,
2013-04-24 09:08:00,47.1,41.0,30.26,NNW,348,14.0,19.0,79,0.00,,,0.01,weatherlink.com 1.10,2013-04-24 14:08:00,
2013-04-24 09:23:00,48.2,42.0,30.26,ENE,60,11.0,16.0,78,0.00,,,0.01,weatherlink.com 1.10,2013-04-24 14:23:00,
2013-04-24 09:38:00,48.9,42.0,30.26,NNW,347,6.0,20.0,76,0.00,,,0.01,weatherlink.com 1.10,2013-04-24 14:38:00,
2013-04-24 09:53:00,49.0,42.0,30.26,NNE,14,12.0,18.0,78,0.00,,,0.01,weatherlink.com 1.10,2013-04-24 14:53:00,
2013-04-24 10:23:00,49.6,43.0,30.27,NW,309,12.0,21.0,77,0.00,,,0.01,weatherlink.com 1.10,2013-04-24 15:23:00,
2013-04-24 10:38:00,51.0,43.0,30.27,NE,34,14.0,19.0,73,0.00,,,0.01,weatherlink.com 1.10,2013-04-24 15:38:00,
2013-04-24 10:53:00,51.7,43.0,30.27,North,355,11.0,21.0,73,0.00,,,0.01,weatherlink.com 1.10,2013-04-24 15:53:00,
2013-04-24 11:08:00,52.7,44.0,30.26,NE,54,6.0,17.0,72,0.00,,,0.01,weatherlink.com 1.10,2013-04-24 16:08:00,
2013-04-24 11:23:00,53.7,44.0,30.26,North,355,9.0,18.0,69,0.00,,,0.01,weatherlink.com 1.10,2013-04-24 16:23:00,
2013-04-24 11:38:00,54.3,45.0,30.25,NE,34,6.0,16.0,70,0.00,,,0.01,weatherlink.com 1.10,2013-04-24 16:38:00,
2013-04-24 11:53:00,55.3,45.0,30.25,North,10,13.0,18.0,68,0.00,,,0.01,weatherlink.com 1.10,2013-04-24 16:53:00,
2013-04-24 12:08:00,56.1,45.0,30.26,NE,36,6.0,17.0,67,0.00,,,0.01,weatherlink.com 1.10,2013-04-24 17:08:00,
2013-04-24 12:23:00,57.4,46.0,30.25,NNW,331,9.0,19.0,65,0.00,,,0.01,weatherlink.com 1.10,2013-04-24 17:23:00,
2013-04-24 12:38:00,57.6,45.0,30.25,North,355,14.0,18.0,63,0.00,,,0.01,weatherlink.com 1.10,2013-04-24 17:38:00,
2013-04-24 12:53:00,58.4,46.0,30.25,North,5,8.0,18.0,64,0.00,,,0.01,weatherlink.com 1.10,2013-04-24 17:53:00,
2013-04-24 13:09:00,59.5,45.0,30.24,NW,313,9.0,16.0,59,0.00,,,0.01,weatherlink.com 1.10,2013-04-24 18:09:00,
2013-04-24 13:24:00,60.5,45.0,30.23,NNW,344,8.0,15.0,58,0.00,,,0.01,weatherlink.com 1.10,2013-04-24 18:24:00,
2013-04-24 13:39:00,60.5,46.0,30.23,NE,40,3.0,16.0,60,0.00,,,0.01,weatherlink.com 1.10,2013-04-24 18:39:00,
2013-04-24 13:54:00,61.4,47.0,30.23,NNE,15,7.0,16.0,59,0.00,,,0.01,weatherlink.com 1.10,2013-04-24 18:54:00,
2013-04-24 14:09:00,62.4,46.0,30.23,North,360,4.0,15.0,56,0.00,,,0.01,weatherlink.com 1.10,2013-04-24 19:09:00,
2013-04-24 14:24:00,63.1,48.0,30.23,NNE,27,6.0,12.0,58,0.00,,,0.01,weatherlink.com 1.10,2013-04-24 19:24:00,
2013-04-24 14:39:00,63.5,47.0,30.22,ENE,61,3.0,16.0,55,0.00,,,0.01,weatherlink.com 1.10,2013-04-24 19:39:00,
2013-04-24 14:54:00,64.1,47.0,30.22,NNE,30,7.0,15.0,55,0.00,,,0.01,weatherlink.com 1.10,2013-04-24 19:54:00,
2013-04-24 15:09:00,64.5,48.0,30.21,North,360,10.0,16.0,55,0.00,,,0.01,weatherlink.com 1.10,2013-04-24 20:09:00,
2013-04-24 15:24:00,65.0,47.0,30.21,North,5,6.0,15.0,52,0.00,,,0.01,weatherlink.com 1.10,2013-04-24 20:24:00,
2013-04-24 15:39:00,65.1,46.0,30.20,NNW,336,11.0,15.0,51,0.00,,,0.01,weatherlink.com 1.10,2013-04-24 20:39:00,
2013-04-24 15:54:00,65.3,47.0,30.20,NW,308,11.0,15.0,52,0.00,,,0.01,weatherlink.com 1.10,2013-04-24 20:54:00,
2013-04-24 16:09:00,66.3,47.0,30.19,NNW,338,1.0,15.0,51,0.00,,,0.01,weatherlink.com 1.10,2013-04-24 21:09:00,
2013-04-24 16:24:00,65.4,46.0,30.20,NNE,21,7.0,14.0,50,0.00,,,0.01,weatherlink.com 1.10,2013-04-24 21:24:00,
2013-04-24 16:39:00,65.2,46.0,30.19,ENE,58,7.0,10.0,50,0.00,,,0.01,weatherlink.com 1.10,2013-04-24 21:39:00,
2013-04-24 16:54:00,65.5,47.0,30.19,North,355,5.0,14.0,51,0.00,,,0.01,weatherlink.com 1.10,2013-04-24 21:54:00,
2013-04-24 17:09:00,65.4,47.0,30.19,North,9,2.0,14.0,51,0.00,,,0.01,weatherlink.com 1.10,2013-04-24 22:09:00,
2013-04-24 17:24:00,65.7,47.0,30.19,North,350,3.0,10.0,52,0.00,,,0.01,weatherlink.com 1.10,2013-04-24 22:24:00,
2013-04-24 17:39:00,65.6,46.0,30.19,NE,46,1.0,9.0,50,0.00,,,0.01,weatherlink.com 1.10,2013-04-24 22:39:00,
2013-04-24 17:54:00,65.5,46.0,30.20,NNE,13,6.0,10.0,50,0.00,,,0.01,weatherlink.com 1.10,2013-04-24 22:54:00,
2013-04-24 18:09:00,66.4,48.0,30.20,North,355,1.0,9.0,51,0.00,,,0.01,weatherlink.com 1.10,2013-04-24 23:09:00,
2013-04-24 18:24:00,66.5,45.0,30.21,North,355,3.0,10.0,47,0.00,,,0.01,weatherlink.com 1.10,2013-04-24 23:24:00,
2013-04-24 18:39:00,66.1,46.0,30.21,North,350,2.0,8.0,49,0.00,,,0.01,weatherlink.com 1.10,2013-04-24 23:39:00,
2013-04-24 18:54:00,64.8,45.0,30.21,North,349,2.0,7.0,49,0.00,,,0.01,weatherlink.com 1.10,2013-04-24 23:54:00,
2013-04-24 19:09:00,64.7,46.0,30.21,NNE,17,1.0,4.0,52,0.00,,,0.01,weatherlink.com 1.10,2013-04-25 00:09:00,
2013-04-24 19:24:00,64.3,46.0,30.21,North,5,1.0,6.0,51,0.00,,,0.01,weatherlink.com 1.10,2013-04-25 00:24:00,
2013-04-24 19:39:00,63.9,46.0,30.21,NNW,342,0.0,5.0,52,0.00,,,0.01,weatherlink.com 1.10,2013-04-25 00:39:00,
2013-04-24 19:54:00,63.3,46.0,30.22,North,5,1.0,2.0,54,0.00,,,0.01,weatherlink.com 1.10,2013-04-25 00:54:00,
2013-04-24 20:09:00,62.4,47.0,30.22,NNW,345,0.0,2.0,57,0.00,,,0.01,weatherlink.com 1.10,2013-04-25 01:09:00,
2013-04-24 20:24:00,61.5,49.0,30.23,North,355,0.0,1.0,64,0.00,,,0.01,weatherlink.com 1.10,2013-04-25 01:24:00,
2013-04-24 20:39:00,60.5,48.0,30.23,NNW,346,0.0,1.0,63,0.00,,,0.01,weatherlink.com 1.10,2013-04-25 01:39:00,
2013-04-24 20:54:00,60.2,47.0,30.23,NNW,346,0.0,0.0,62,0.00,,,0.01,weatherlink.com 1.10,2013-04-25 01:54:00,
2013-04-24 21:09:00,59.5,47.0,30.24,NNW,346,0.0,0.0,64,0.00,,,0.01,weatherlink.com 1.10,2013-04-25 02:09:00,
2013-04-24 21:24:00,58.9,48.0,30.25,NNW,346,0.0,1.0,67,0.00,,,0.01,weatherlink.com 1.10,2013-04-25 02:24:00,
2013-04-24 21:39:00,58.4,47.0,30.25,NNW,341,0.0,3.0,66,0.00,,,0.01,weatherlink.com 1.10,2013-04-25 02:39:00,
2013-04-24 21:54:00,58.9,47.0,30.25,North,355,1.0,4.0,64,0.00,,,0.01,weatherlink.com 1.10,2013-04-25 02:54:00,
2013-04-24 22:24:00,60.4,47.0,30.27,North,355,0.0,4.0,62,0.00,,,0.01,weatherlink.com 1.10,2013-04-25 03:24:00,
2013-04-24 22:39:00,60.6,47.0,30.28,North,5,3.0,4.0,62,0.00,,,0.01,weatherlink.com 1.10,2013-04-25 03:39:00,
2013-04-24 22:54:00,60.5,47.0,30.27,NNW,333,2.0,3.0,62,0.00,,,0.01,weatherlink.com 1.10,2013-04-25 03:54:00,
2013-04-24 23:09:00,60.5,47.0,30.27,North,350,2.0,5.0,62,0.00,,,0.01,weatherlink.com 1.10,2013-04-25 04:09:00,
2013-04-24 23:24:00,60.3,47.0,30.27,NNE,31,0.0,7.0,62,0.00,,,0.01,weatherlink.com 1.10,2013-04-25 04:24:00,
2013-04-24 23:39:00,59.9,47.0,30.27,NNW,346,2.0,5.0,63,0.00,,,0.01,weatherlink.com 1.10,2013-04-25 04:39:00,
2013-04-24 23:54:00,59.5,47.0,30.28,NNW,340,1.0,5.0,63,0.00,,,0.01,weatherlink.com 1.10,2013-04-25 04:54:00,